[[{"header":{"parameterUnit":"m.s-1","parameterCategory":1,"la1":30.2991,"la2":30.254,"lo1":-89.0895,"lo2":-89.0444,"dy":0.0017,"dx":0.0017,"nx":28,"ny":28,"refTime":"2024-04-10T03:00:00:Z","depth":0,"parameterNumber":2,"parameterNumberName":"U-component_of_WINDS"},"data":[0,0,0,0,0,0,0,0,0,0,0,0,0,0,0,0,0,0,0,0,0,0,0,0,0,0,0,0,0,0,0,0,0,0,0,0,0,0,0,0,0,0,0,0,0,0,0,0,0,0,0,0,0,0,0,0,0,0,-7.7994,-7.7995,0,-7.8064,-7.8065,-7.8066,-7.8036,-7.8034,-7.8032,-7.8031,-7.8097,-7.8101,-7.8104,0,0,0,0,0,0,0,0,0,0,0,0,0,-7.783,-7.7833,-7.7994,-7.7995,-7.7996,-7.8064,-7.8065,-7.8066,-7.8036,-7.8034,-7.8032,-7.803,-7.8096,-7.81,-7.8104,0,0,0,0,0,0,0,0,0,0,0,0,0,-7.7901,-7.7834,-7.7994,-7.7989,-7.7989,-7.8064,-7.8065,-7.8066,-7.8036,-7.8034,-7.8031,-7.8029,-7.8095,-7.81,-7.8105,-7.8187,0,0,-7.812,-7.8122,0,0,0,0,0,0,0,0,-7.7897,-7.7907,-7.7989,-7.799,-7.799,-7.8039,-7.8032,-7.8107,-7.8037,-7.8018,-7.803,-7.8028,-7.808,-7.8086,-7.8104,-7.819,-7.8193,-7.8121,-7.8124,-7.8126,-7.8127,0,0,0,0,0,0,0,-7.7892,-7.7903,-7.8022,-7.799,-7.7991,-7.7982,-7.7989,-7.8046,-7.8062,-7.802,-7.8018,-7.8027,-7.8079,-7.8099,-7.8106,-7.8194,-7.812,-7.8125,-7.8128,-7.813,-7.8349,-7.8352,0,0,0,0,0,0,-7.7888,-7.79,-7.8019,-7.8024,-7.7936,-7.7987,-7.7995,-7.8025,-7.8061,-7.8065,-7.8029,-7.8025,-7.8092,-7.81,-7.8108,-7.8204,-7.8126,-7.8131,-7.8133,-7.8346,-7.835,-7.8353,0,0,0,0,0,0,-7.7884,-7.7899,-7.8017,-7.7961,-7.7976,-7.7993,-7.8027,-7.8028,-7.8048,-7.8068,-7.8071,-7.8047,-7.809,-7.8101,-7.8167,-7.8206,-7.8133,-7.8137,-7.8343,-7.8347,-7.8351,-7.8399,0,0,0,0,0,0,-7.788,-7.7897,-7.7929,-7.7962,-7.7979,-7.8076,-7.8029,-7.8031,-7.8058,-7.8053,-7.8086,-7.8088,-7.8089,-7.816,-7.8172,-7.8212,-7.8141,-7.8339,-7.8345,-7.835,-7.8394,-7.8404,-7.8413,0,0,0,0,0,-7.7874,-7.7939,-7.7931,-7.7946,-7.8019,-7.8078,-7.8088,-7.8088,-7.8061,-7.8092,-7.8106,-7.8087,-7.8201,-7.8167,-7.8181,-7.8222,-7.8337,-7.8343,-7.8349,-7.8389,-7.8402,-7.8413,0,0,0,0,0,0,-7.7908,-7.7943,-7.7935,-7.8013,-7.8043,-7.8073,-7.8113,-7.8102,-7.8139,-7.8133,-7.8132,-7.8139,-7.8208,-7.8223,-7.8184,-7.8303,-7.8265,-7.8274,-7.829,-7.8303,-7.8312,-7.8305,-7.8145,0,0,0,0,0,-7.7925,-7.7972,-7.8,-7.8066,-7.8082,-7.8095,-7.8121,-7.8119,-7.815,-7.8162,-7.818,-7.8209,-7.8251,-7.8278,-7.8318,-7.8398,-7.8403,-7.8433,-7.8443,-7.8451,-7.8457,-7.8499,-7.8511,-7.8373,-7.8373,-7.8373,0,0,-7.796,-7.7985,-7.8014,-7.8073,-7.8097,-7.8143,-7.8106,-7.8157,-7.819,-7.8169,-7.8232,-7.8248,-7.828,-7.8353,-7.8386,-7.8367,-7.8497,-7.8459,-7.8465,-7.8467,-7.8506,-7.8519,-7.8531,-7.8378,-7.8377,-7.8376,0,0,-7.8046,-7.8071,-7.8128,-7.8153,-7.819,-7.8199,-7.8213,-7.8245,-7.8254,-7.8319,-7.8304,-7.8344,-7.8417,-7.8441,-7.8462,-7.856,-7.8544,-7.8574,-7.8622,-7.8662,-7.8673,-7.8683,-7.8715,-7.8727,-7.8581,-7.8581,-7.8582,0,-7.8083,-7.8154,-7.8159,-7.8211,-7.8237,-7.8223,-7.828,-7.8303,-7.835,-7.8368,-7.8347,-7.8439,-7.846,-7.8537,-7.8561,-7.8581,-7.8594,-7.8567,-7.8672,-7.8681,-7.869,-7.8721,-7.8733,-7.8584,-7.8584,-7.8584,-7.8584,0,-7.8198,-7.8247,-7.8289,-7.8337,-7.8368,-7.8422,-7.8433,-7.8465,-7.8462,-7.8472,-7.8538,-7.8564,-7.8608,-7.8627,-7.8624,-7.8705,-7.8691,-7.8672,-7.8632,-7.8706,-7.8735,-7.8747,-7.8589,-7.8588,-7.8587,-7.8586,0,0,-7.8302,-7.8354,-7.8369,-7.839,-7.8431,-7.8469,-7.8523,-7.8569,-7.8594,-7.8628,-7.8671,-7.8735,-7.8718,-7.8742,-7.8742,-7.8778,-7.8852,-7.8754,-7.8754,-7.8768,-7.8939,-7.895,-7.8964,-7.8843,-7.8846,-7.8848,-7.8935,0,-7.8389,-7.8485,-7.8491,-7.8577,-7.8622,-7.8611,-7.8658,-7.8687,-7.87,-7.8738,-7.8752,-7.8796,-7.8771,-7.8785,-7.8821,-7.8835,-7.8885,-7.883,-7.8881,-7.8882,-7.8868,-7.898,-7.8992,-7.9073,-7.8947,-7.8949,-7.895,0,-7.8502,-7.8541,-7.8631,-7.8666,-7.8685,-7.8727,-7.8769,-7.8808,-7.8841,-7.8848,-7.8877,-7.8872,-7.8926,-7.8889,-7.8962,-7.8924,-7.8946,-7.8957,-7.896,-7.8961,-7.8917,-7.898,-7.9099,-7.911,-7.8968,-7.8967,-7.8965,0,-7.8565,-7.8641,-7.8704,-7.8724,-7.8767,-7.8796,-7.8815,-7.8846,-7.8873,-7.8911,-7.8928,-7.8971,-7.8993,-7.9026,-7.9032,-7.9005,-7.9105,-7.9068,-7.9109,-7.9109,-7.9127,-7.9124,-7.9247,-7.9148,-7.9148,-7.9148,-7.9148,0,-7.8658,-7.8713,-7.8733,-7.8772,-7.8833,-7.8841,-7.8901,-7.8918,-7.8946,-7.8987,-7.8981,-7.9019,-7.9028,-7.9067,-7.9074,-7.9132,-7.9143,-7.9148,-7.9148,-7.9146,-7.9145,-7.9157,-7.915,-7.9151,-7.915,-7.915,-7.9149,0,-7.8737,-7.8753,-7.8822,-7.8858,-7.8869,-7.8912,-7.8942,-7.8979,-7.8992,-7.9044,-7.9056,-7.9076,-7.9123,-7.9134,-7.919,-7.9194,-7.9262,-7.9258,-7.925,-7.9249,-7.9288,-7.9282,-7.9419,-7.9436,-7.933,-7.9331,-7.9331,0,-7.8793,-7.8836,-7.8877,-7.8905,-7.8926,-7.8971,-7.8999,-7.9009,-7.9038,-7.9081,-7.9112,-7.9158,-7.9195,-7.927,-7.9288,-7.9331,-7.9326,-7.9371,-7.9331,-7.9328,-7.9322,-7.9318,-7.9321,-7.9376,-7.9378,-7.9379,-7.9379,0,-7.889,-7.8897,-7.8939,-7.8984,-7.9018,-7.9054,-7.9087,-7.911,-7.9125,-7.9158,-7.9207,-7.9236,-7.9293,-7.9338,-7.9382,-7.94,-7.9391,-7.9393,-7.9403,-7.9399,-7.9392,-7.9393,-7.9266,-7.9388,-7.9387,-7.9386,-7.9386,-7.9386,-7.8957,-7.8994,-7.9029,-7.9076,-7.9103,-7.9135,-7.9171,-7.9191,-7.9232,-7.928,-7.9284,-7.9336,-7.9369,-7.9426,-7.9447,-7.9487,-7.9472,-7.9489,-7.9493,-7.9496,-7.9497,-7.939,-7.9495,-7.9495,-7.9495,-7.9494,-7.9494,0,-7.9051,-7.9074,-7.9117,-7.9166,-7.9202,-7.9196,-7.9233,-7.9263,-7.931,-7.9342,-7.938,-7.9435,-7.9479,-7.9503,-7.9547,-7.9574,-7.9571,-7.9585,-7.9581,-7.9585,-7.9509,-7.9493,-7.9586,-7.9586,-7.9586,-7.9586,-7.9586,-7.9586,-7.9104,-7.9165,-7.9176,-7.9251,-7.9273,-7.9325,-7.9347,-7.9376,-7.9402,-7.9465,-7.9502,-7.9518,-7.9547,-7.9593,-7.9633,-7.9639,-7.9654,-7.9668,-7.9672,-7.96,-7.959,-7.9581,-7.9566,-7.9673,-7.9673,-7.9743,-7.9744,-7.9745]},{"header":{"parameterUnit":"m.s-1","parameterCategory":1,"la1":30.2991,"la2":30.254,"lo1":-89.0895,"lo2":-89.0444,"dy":0.0017,"dx":0.0017,"nx":28,"ny":28,"refTime":"2024-04-10T03:00:00:Z","depth":0,"parameterNumber":3,"parameterNumberName":"V-component_of_WINDS"},"data":[0,0,0,0,0,0,0,0,0,0,0,0,0,0,0,0,0,0,0,0,0,0,0,0,0,0,0,0,0,0,0,0,0,0,0,0,0,0,0,0,0,0,0,0,0,0,0,0,0,0,0,0,0,0,0,0,0,0,6.0411,6.0411,0,6.0397,6.0397,6.0396,6.0322,6.032,6.0318,6.0316,6.0301,6.0303,6.0304,0,0,0,0,0,0,0,0,0,0,0,0,0,6.0376,6.0377,6.0411,6.0411,6.0411,6.0397,6.0397,6.0396,6.0322,6.032,6.0318,6.0316,6.0301,6.0302,6.0304,0,0,0,0,0,0,0,0,0,0,0,0,0,6.0379,6.0377,6.0411,6.0372,6.0368,6.0397,6.0397,6.0396,6.0322,6.032,6.0317,6.0315,6.03,6.0302,6.0304,6.0369,0,0,6.031,6.0311,0,0,0,0,0,0,0,0,6.0379,6.038,6.0378,6.0375,6.0371,6.0358,6.0378,6.0387,6.0323,6.034,6.0316,6.0313,6.0322,6.0322,6.0325,6.0368,6.0368,6.031,6.0311,6.0312,6.0313,0,0,0,0,0,0,0,6.0379,6.0381,6.0405,6.0378,6.0374,6.0356,6.0353,6.038,6.0346,6.0338,6.0333,6.0332,6.032,6.0324,6.0325,6.0368,6.031,6.0312,6.0313,6.0314,6.0465,6.0468,0,0,0,0,0,0,6.0384,6.0381,6.0406,6.0405,6.0368,6.0358,6.0356,6.0365,6.0346,6.034,6.0334,6.0329,6.0322,6.0322,6.0324,6.04,6.0312,6.0314,6.0315,6.0463,6.0466,6.0469,0,0,0,0,0,0,6.0384,6.0387,6.0406,6.0392,6.0393,6.0362,6.0373,6.0366,6.037,6.0343,6.0337,6.0344,6.032,6.0321,6.0359,6.0398,6.0315,6.0316,6.0459,6.0464,6.0468,6.0552,0,0,0,0,0,0,6.0383,6.0387,6.0411,6.0393,6.0394,6.0442,6.0375,6.0368,6.0373,6.0366,6.0351,6.0346,6.0318,6.0357,6.0361,6.0399,6.0318,6.0455,6.0461,6.0466,6.0545,6.0559,6.057,0,0,0,0,0,6.0382,6.0435,6.0413,6.0416,6.0423,6.0444,6.0445,6.0412,6.0377,6.0401,6.0384,6.0346,6.0393,6.0361,6.0365,6.0405,6.0453,6.046,6.0466,6.054,6.0556,6.057,0,0,0,0,0,0,6.0458,6.0432,6.0407,6.0455,6.0453,6.0431,6.046,6.0429,6.0436,6.0429,6.0388,6.0385,6.0429,6.0421,6.0385,6.0468,6.0417,6.0425,6.0472,6.0487,6.0499,6.05,6.0319,0,0,0,0,0,6.0481,6.05,6.0476,6.0521,6.0521,6.0492,6.0499,6.0475,6.047,6.0468,6.0454,6.0451,6.0465,6.0476,6.0487,6.0544,6.054,6.0574,6.0586,6.0596,6.0603,6.0634,6.0649,6.0491,6.0491,6.049,0,0,6.0527,6.0515,6.0529,6.0536,6.0531,6.0552,6.0491,6.0515,6.0531,6.0472,6.0507,6.0497,6.0491,6.0539,6.056,6.0534,6.0646,6.0604,6.0613,6.0614,6.0643,6.0658,6.0671,6.0495,6.0494,6.0494,0,0,6.0623,6.0615,6.0653,6.065,6.0643,6.0624,6.0633,6.0617,6.0608,6.0643,6.06,6.0618,6.0643,6.0641,6.0644,6.0742,6.0708,6.0747,6.0811,6.0842,6.0854,6.0865,6.0901,6.0915,6.0754,6.0755,6.0755,0,6.0681,6.0711,6.0676,6.0705,6.0709,6.0658,6.0696,6.0695,6.0693,6.0698,6.0668,6.07,6.0692,6.074,6.0765,6.0768,6.0778,6.0748,6.0855,6.0866,6.0876,6.091,6.0923,6.0759,6.0759,6.0758,6.0758,0,6.0785,6.0807,6.0838,6.0838,6.0847,6.088,6.085,6.0863,6.0839,6.0822,6.086,6.0849,6.0858,6.0868,6.0843,6.0913,6.0897,6.0863,6.081,6.0896,6.0927,6.094,6.0766,6.0765,6.0763,6.0762,0,0,6.0926,6.0908,6.0921,6.0921,6.0911,6.0928,6.096,6.0969,6.0982,6.0983,6.1009,6.1033,6.1001,6.1004,6.0979,6.1006,6.1087,6.0968,6.0967,6.0991,6.1165,6.1191,6.1207,6.1064,6.1067,6.1068,6.1165,0,6.1019,6.1072,6.1042,6.11,6.1121,6.1073,6.1101,6.1099,6.1085,6.1101,6.1086,6.1104,6.106,6.1062,6.1087,6.1072,6.1121,6.1064,6.1089,6.109,6.1092,6.1223,6.1251,6.1343,6.1177,6.1179,6.1181,0,6.1133,6.114,6.1201,6.1189,6.1197,6.1222,6.123,6.1246,6.1243,6.1231,6.1236,6.1205,6.1236,6.1185,6.1228,6.1191,6.1199,6.1193,6.1196,6.1197,6.1141,6.1228,6.1371,6.1385,6.1199,6.1198,6.1197,0,6.1232,6.1257,6.1296,6.1298,6.1285,6.1305,6.13,6.1295,6.1303,6.131,6.1316,6.1326,6.1332,6.1341,6.1314,6.1279,6.1362,6.1308,6.1353,6.1354,6.1372,6.1372,6.1519,6.1378,6.1377,6.1377,6.1377,0,6.1339,6.1378,6.1341,6.1365,6.1408,6.1374,6.1418,6.1408,6.1404,6.1426,6.1386,6.1407,6.1371,6.1389,6.1368,6.1408,6.1411,6.1403,6.1397,6.1407,6.1408,6.1412,6.1405,6.1381,6.138,6.1379,6.1379,0,6.1456,6.1433,6.1473,6.1459,6.1456,6.1489,6.1476,6.1499,6.1483,6.1512,6.1517,6.1492,6.1512,6.1486,6.1503,6.1489,6.1544,6.1528,6.1545,6.1541,6.1588,6.1585,6.1744,6.1764,6.1609,6.161,6.1612,0,6.1526,6.1555,6.1544,6.1557,6.1555,6.1575,6.1584,6.1553,6.1564,6.1564,6.1587,6.1603,6.1615,6.1649,6.1633,6.1646,6.1631,6.1686,6.1632,6.1642,6.1633,6.1632,6.1635,6.1697,6.1699,6.17,6.1701,0,6.1653,6.1641,6.1655,6.1667,6.1679,6.1687,6.1691,6.1703,6.167,6.1685,6.1705,6.1715,6.1733,6.175,6.176,6.1755,6.1724,6.1718,6.173,6.174,6.1749,6.1746,6.1576,6.1715,6.1713,6.1712,6.1712,6.1711,6.1749,6.1774,6.1771,6.1789,6.1789,6.1795,6.1816,6.1804,6.182,6.1833,6.1813,6.1839,6.1837,6.1846,6.1846,6.1866,6.1842,6.1859,6.1863,6.1867,6.1875,6.1746,6.1867,6.1867,6.1867,6.1866,6.1866,0,6.1875,6.1871,6.1889,6.1897,6.1912,6.1881,6.1885,6.1899,6.1923,6.1924,6.1936,6.1961,6.1978,6.1964,6.1978,6.1997,6.1983,6.2002,6.2001,6.2001,6.1895,6.1884,6.2013,6.2013,6.2013,6.2013,6.2013,6.2013,6.1942,6.1983,6.1971,6.2011,6.2007,6.2032,6.2037,6.2043,6.2043,6.2073,6.2087,6.2078,6.2073,6.2087,6.2102,6.2098,6.2105,6.213,6.212,6.2022,6.2008,6.1994,6.1983,6.2131,6.2132,6.2224,6.2225,6.2226]}]]